Weather History for Salinas, CA

Change the Weather History Date:

Wednesday, September 19, 2012

  Actual Average Record
Temperature  
Mean Temperature 62 °F 64 °F  
Max Temperature 71 °F 74 °F 101 °F (1946)
Min Temperature 53 °F 54 °F 43 °F (1978)
Degree Days  
Heating Degree Days 3 2  
Month to date heating degree days 36 38  
Since 1 July heating degree days 174 173  
Cooling Degree Days 0 1  
Month to date cooling degree days 0 19  
Year to date cooling degree days 25 88  
Growing Degree Days 12 (Base 50)    
Moisture  
Dew Point 51 °F    
Average Humidity 73    
Maximum Humidity 93    
Minimum Humidity 53    
Precipitation  
Precipitation 0.00 in 0.01 in 0.19 in (1966)
Month to date precipitation T 0.07  
Year to date precipitation 7.12 8.82  
Since 1 July precipitation T 0.10  
Sea Level Pressure  
Sea Level Pressure 30.09 in    
Wind  
Wind Speed 8 mph (West)    
Max Wind Speed 18 mph    
Max Gust Speed 22 mph    
Visibility 10 miles    
Events      
T = Trace of Precipitation, MM = Missing Value Source: NWS Daily Summary

Daily Weather History Graph

Daily Weather History Graph

Search for Another Location

Airport:

Trip Planner

Search our weather history database for the weather conditions in past years. The results will help you decide how hot, cold, wet, or windy it might be!

Date:

Astronomy

Sep. 19, 2012 Rise Set
Actual Time 6:52 AM PDT 7:06 PM PDT
Civil Twilight 6:26 AM PDT 7:32 PM PDT
Nautical Twilight 5:56 AM PDT 8:02 PM PDT
Astronomical Twilight 5:25 AM PDT 8:33 PM PDT
Moon 11:00 AM PDT (9/19) 9:29 PM PDT (9/19)
Length of Visible Light 13h 06m
Length of Day
12h 14m
Waxing Crescent, 18% of the Moon is Illuminated
Sep 19
Waxing Crescent
Sep 22
First Quarter
Sep 29
Full
Oct 8
Last Quarter
Oct 15
New

Hourly Weather History & Observations

Time (PDT) Temp. Dew Point Humidity Pressure Visibility Wind Dir Wind Speed Gust Speed Precip Events Conditions
12:53 AM 55.0 °F 51.1 °F 86% 30.11 in 10.0 mi Calm Calm - N/A   Mostly Cloudy
1:53 AM 55.0 °F 51.1 °F 86% 30.11 in 10.0 mi WSW 5.8 mph - N/A   Overcast
2:53 AM 55.0 °F 52.0 °F 89% 30.10 in 10.0 mi West 3.5 mph - N/A   Mostly Cloudy
3:53 AM 54.0 °F 51.1 °F 90% 30.10 in 10.0 mi West 5.8 mph - N/A   Overcast
4:16 AM 53.6 °F 51.8 °F 94% 30.07 in 10.0 mi West 5.8 mph - N/A   Overcast
4:51 AM 53.6 °F 51.8 °F 94% 30.07 in 10.0 mi West 4.6 mph - N/A   Overcast
4:53 AM 54.0 °F 51.1 °F 90% 30.10 in 10.0 mi West 3.5 mph - N/A   Overcast
5:21 AM 53.6 °F 51.8 °F 94% 30.07 in 10.0 mi WNW 4.6 mph - N/A   Mostly Cloudy
5:43 AM 53.6 °F 51.8 °F 94% 30.07 in 9.0 mi West 4.6 mph - N/A   Scattered Clouds
5:53 AM 54.0 °F 51.1 °F 90% 30.11 in 9.0 mi WNW 3.5 mph - N/A   Partly Cloudy
6:22 AM 53.6 °F 51.8 °F 94% 30.08 in 9.0 mi WNW 4.6 mph - N/A   Mostly Cloudy
6:53 AM 54.0 °F 51.1 °F 90% 30.12 in 9.0 mi WSW 3.5 mph - N/A   Overcast
7:01 AM 53.6 °F 51.8 °F 94% 30.09 in 8.0 mi SW 3.5 mph - N/A   Overcast
7:53 AM 53.1 °F 50.0 °F 89% 30.12 in 7.0 mi WSW 5.8 mph - N/A   Partly Cloudy
8:30 AM 53.6 °F 51.8 °F 94% 30.10 in 9.0 mi WSW 4.6 mph - N/A   Mostly Cloudy
8:39 AM 55.4 °F 51.8 °F 88% 30.10 in 9.0 mi West 4.6 mph - N/A   Scattered Clouds
8:53 AM 55.0 °F 51.1 °F 86% 30.13 in 9.0 mi Variable 4.6 mph - N/A   Partly Cloudy
9:53 AM 61.0 °F 52.0 °F 72% 30.14 in 8.0 mi WNW 3.5 mph - N/A   Clear
10:53 AM 64.9 °F 53.1 °F 65% 30.13 in 9.0 mi WNW 8.1 mph - N/A   Clear
11:53 AM 69.1 °F 52.0 °F 54% 30.11 in 9.0 mi West 6.9 mph - N/A   Clear
12:53 PM 70.0 °F 52.0 °F 53% 30.10 in 10.0 mi West 13.8 mph - N/A   Clear
1:53 PM 68.0 °F 51.1 °F 55% 30.09 in 10.0 mi West 15.0 mph - N/A   Clear
2:53 PM 68.0 °F 51.1 °F 55% 30.07 in 10.0 mi West 15.0 mph - N/A   Clear
3:53 PM 66.9 °F 51.1 °F 57% 30.07 in 10.0 mi West 16.1 mph - N/A   Clear
4:53 PM 64.0 °F 51.1 °F 63% 30.07 in 10.0 mi West 15.0 mph - N/A   Clear
5:53 PM 62.6 °F 51.8 °F 68% 30.05 in 10.0 mi West 15.0 mph 20.7 mph N/A   Clear
6:53 PM 60.1 °F 51.1 °F 72% 30.08 in 10.0 mi West 11.5 mph - N/A   Clear
7:53 PM 59.0 °F 51.1 °F 75% 30.08 in 10.0 mi West 8.1 mph - N/A   Clear
8:53 PM 59.0 °F 50.0 °F 72% 30.09 in 10.0 mi West 8.1 mph - N/A   Clear
9:53 PM 57.9 °F 50.0 °F 75% 30.09 in 10.0 mi WNW 5.8 mph - N/A   Clear
10:53 PM 57.0 °F 50.0 °F 77% 30.09 in 10.0 mi NW 5.8 mph - N/A   Clear
11:53 PM 57.0 °F 51.1 °F 81% 30.09 in 10.0 mi NNW 5.8 mph - N/A   Clear